Vertical_Velocity
2 -0 1 2 7 -2 26 2 6 -2 -2 -0 -1 -2 -1 0 3 -2 2 -3 -1 -0 -1 -2 -1 -0 -2 2 -0 -0 -0 -1 -1 -1 -1 -1 0 -0 -1 -0 -0 1 -0 -1 -1 -2 -2 -2 -1
1 -2 -2 68 -1 -0 -3 -1 9 2 -2 2 -0 0 -1 2 -3 -4 1 1 -1 -0 0 -1 1 -1 -0 0 -2 -1 -1 -1 -1 0 -1 -0 -1 -1 -1 -3 -1 0 0 -1 0 -1 -3 -3 -4
-2 9 2 1 -15 21 -2 -5 2 1 -2 -3 4 1 -2 0 -0 1 -1 1 -2 -1 0 0 -2 -1 -1 -0 -1 -1 -1 0 0 0 -1 -1 -1 -1 -2 -1 -1 -0 -1 -1 0 -1 -1 -2 -1
16 63 13 1 6 5 -10 3 4 -3 -2 -3 1 -1 -1 -1 0 -2 -0 -1 0 -1 0 -1 -2 -0 0 -1 -2 -1 -0 1 -0 -0 -1 -0 -1 -1 -1 -1 0 -1 0 1 1 0 -1 -1 0
33 -40 24 -5 -5 12 2 5 6 -1 -8 -2 -1 -1 -1 -1 1 -2 -1 -1 -2 -1 -0 -1 0 1 -0 -0 0 -0 -0 -0 0 -1 -1 -0 -2 -2 -1 -1 -1 -0 0 -0 -0 0 -0 -0 1
36 2 -20 13 5 6 5 3 -3 -7 4 -1 -3 -1 -2 -1 1 1 0 1 -1 0 -0 -0 -1 -1 -0 0 -1 -0 -0 -2 -2 -2 -2 -2 -1 -1 0 -1 -0 -1 -2 -1 -3 -4 -3 -1 1
-49 -20 -0 18 0 -1 -1 2 7 -2 -8 -2 1 -0 -1 -3 -1 -0 -0 -2 -1 -1 -1 -0 -1 -1 -1 -1 -0 -1 -1 -2 -2 -2 -1 -1 -1 0 -1 -1 -2 -1 -1 -1 -0 -1 -2 -1 2
10 4 8 65 -5 -10 2 -6 3 0 -8 -3 8 -2 -1 -2 0 -2 -2 -2 -2 1 -1 -1 -2 -1 -1 -1 -1 -1 -2 -3 -2 -1 -2 -2 -1 1 1 -0 2 -7 -6 -4 -6 -3 -2 -2 3
2 2 31 3 -0 -4 -2 1 -3 -1 -2 -8 -8 -4 1 -1 -2 -2 -2 -1 -0 -1 -2 -2 -1 -0 -1 -1 -2 -1 -2 -2 -2 -1 -2 -1 1 4 3 -1 -10 -5 -6 -6 -6 -5 -5 -1 -2
5 -0 -9 -3 3 6 -2 -1 -0 -1 -0 -2 -8 -3 -3 1 -0 -1 -1 -2 -0 -1 -3 -1 -1 -2 -1 -2 -1 -1 -2 -2 -1 -2 -3 -2 61 1 -3 -10 -1 17 34 17 2 -7 -4 -0 -2
-6 -5 5 2 4 16 3 -5 -2 0 -2 -2 -0 -2 -1 -5 2 -3 -2 -1 -2 -1 1 -2 -1 -2 -1 -1 -0 -1 -1 -2 -1 -2 -2 1 7 2 -16 -1 -4 10 -38 13 1 -4 -7 0 -1
15 -5 4 21 10 1 5 -7 -1 -3 -5 1 -3 -1 -0 -3 -1 1 1 -2 -1 -1 -1 -1 -1 -1 0 -1 -1 -2 -2 -2 -0 -1 -1 -1 5 0 9 5 -4 20 6 107 -4 -3 -0 0 -3
3 -3 6 8 2 -2 1 -0 -7 1 -2 -0 2 0 -1 -1 -2 1 -1 -1 -1 -1 -0 -0 -1 1 -1 1 -1 -3 -3 -1 -0 -3 -0 -2 2 3 12 1 1 -2 4 1 -6 -2 -1 -1 -1
7 -4 -4 -1 -2 -4 -6 -3 -4 1 -2 -1 -1 0 -1 -2 -2 -2 -1 -1 -2 -2 -1 -2 -3 1 -1 0 -2 -1 -3 2 1 3 -0 0 0 1 3 5 4 2 -2 -5 -2 -0 1 1 -0
-3 2 7 -6 -7 17 -1 17 -1 -4 1 0 -2 -0 -1 -2 -2 -2 -2 -2 -3 -2 -2 -2 -1 -2 -2 -1 0 1 -1 -1 -1 -1 -3 2 -4 -2 -3 0 -1 -1 -1 -3 -3 -0 0 -0 -1
-7 -1 -1 -1 2 1 2 44 2 -6 -1 3 1 -0 -1 -3 -2 -2 -2 -0 -1 -2 -2 -2 -1 -2 -2 -1 -2 -0 0 -1 -2 -1 0 0 -2 -2 -1 -1 -1 -1 -4 -3 -0 -4 -2 -0 -0
-3 -3 -3 11 8 1 1 -21 -3 -7 -2 -0 3 -1 -1 -2 -2 -2 -2 -2 -2 -2 -2 -0 -1 1 -1 -1 -0 -1 0 -1 -1 -1 -1 1 -2 1 0 -2 -2 -2 1 -0 -5 -1 -2 -1 -1
-1 -0 -3 7 13 7 -15 -7 -8 -3 -14 -0 3 0 -1 -2 -2 -2 -1 -2 -1 -2 -1 -1 -2 -1 -1 1 1 -0 -1 -1 -1 -2 -1 7 -2 -1 0 -1 -1 -1 -1 0 0 -2 -1 -0 -1
-3 6 -1 32 4 7 4 -12 -13 -6 -18 -0 4 2 2 -1 -4 -3 -4 -3 -2 -2 -1 -1 -2 -1 -0 -0 -1 -1 -0 -1 -1 -1 -4 -2 1 -2 -1 3 -3 -1 -0 -1 -2 -2 -2 -2 -3
-2 -4 2 44 -1 -3 14 -5 -4 -7 -6 -3 2 1 0 -0 -2 -2 -3 -4 -2 -1 -1 -1 -2 -2 -2 -2 -0 -1 -1 -1 -2 -1 -3 -0 -1 -1 -1 -1 1 -3 -0 -3 -3 -2 -1 -1 -4
-4 -11 -3 22 5 8 12 3 26 25 -4 3 -4 -1 -1 -1 -2 -2 -1 -1 -2 -1 -1 -1 -1 -1 -1 -1 -1 -3 -2 0 -2 -1 0 -2 -1 -2 -0 -1 -3 -1 -1 -1 -1 -2 1 1 -2
-6 -6 -2 -4 39 -6 12 -14 -1 1 -9 2 -2 -3 -1 -3 -2 -3 -2 -2 -2 -2 -1 -1 -1 -1 -1 0 -1 -2 -1 -2 2 0 -1 -3 -2 -0 -1 -4 -2 -0 2 1 -0 1 -2 -1 2
-1 -4 -2 1 52 -3 0 -3 17 21 9 -7 1 -1 -5 -4 -4 -3 -2 -2 -3 -1 -0 -1 -2 -1 -1 -0 -1 -1 -1 -1 0 -0 -0 0 -0 -1 0 3 2 2 2 2 2 1 1 -2 -2
3 2 -6 2 5 14 13 -4 -3 3 1 -10 10 -1 2 -2 -0 -2 -2 -2 -1 -1 -1 -1 0 -1 -1 -2 -2 -1 -2 -2 -1 -1 0 -0 -0 2 -1 -1 0 0 -1 -3 -2 -0 0 2 0
-3 4 -3 -9 -1 -14 16 -3 -20 -0 11 6 6 62 -6 4 -7 -3 -4 -1 -1 -1 -1 1 -1 1 -2 1 -1 -2 -1 -2 -2 -2 -2 -1 0 1 2 -2 -3 -3 0 0 0 -0 -4 -4 -1
-7 3 -8 -9 -15 -16 -16 8 -4 -8 -3 13 0 -1 18 0 -5 -5 2 -2 -1 -2 -1 -3 1 -0 0 -1 -1 1 -1 -2 -2 -2 -3 -1 0 -2 -0 -0 -0 -0 -4 0 0 -2 0 1 -0
23 -41 8 8 2 6 10 -2 -1 9 -8 -3 -5 15 12 10 -9 -7 -0 -0 -5 -2 -1 -3 -2 0 -1 -2 1 1 -1 -1 -2 -2 -2 -1 -1 -1 -1 -1 -2 -3 -1 -2 -0 -0 -2 1 1
-17 42 -4 -7 -8 0 -11 -3 27 0 6 -11 -6 5 9 10 -2 -11 0 -4 -2 1 -0 -2 -1 -1 -2 -1 0 -1 -2 -3 -2 -3 -1 -1 -2 2 -2 -2 -0 2 0 -5 1 -1 1 -3 0
-2 -15 -17 13 -6 -6 -6 -21 6 -9 4 1 2 1 -20 1 -10 -9 -8 -5 -3 -2 -1 -1 -1 0 -0 -0 0 -1 -2 -1 -2 -1 -0 -1 -0 -1 1 2 2 -1 0 1 -2 -0 2 0 -0
-6 -14 3 -8 -16 -20 -4 -25 10 36 40 14 2 1 3 14 -7 7 -6 0 -3 -5 -3 0 1 -0 -1 0 0 -1 -0 -2 -1 -0 -1 1 -0 -1 -3 0 -2 -0 -1 2 -1 -2 -2 1 7
Height
5882 5881 5883 5880 5880 5885 5882 5885 5882 5883 5885 5886 5885 5885 5886 5887 5889 5892 5891 5891 5891 5891 5894 5894 5894 5895 5896 5897 5899 5899 5899 5900 5900 5902 5901 5902 5902 5903 5903 5902 5902 5901 5902 5902 5902 5903 5903 5904 5904
5885 5884 5884 5854 5870 5883 5886 5886 5885 5882 5885 5887 5887 5887 5888 5889 5890 5893 5894 5893 5892 5894 5896 5896 5897 5898 5899 5900 5900 5901 5900 5901 5902 5903 5903 5904 5904 5904 5903 5903 5902 5902 5903 5903 5904 5904 5904 5905 5905
5886 5886 5887 5883 5881 5884 5889 5891 5887 5883 5887 5889 5887 5887 5891 5893 5893 5894 5894 5896 5896 5897 5898 5899 5900 5901 5901 5901 5902 5902 5902 5904 5904 5905 5905 5905 5905 5904 5904 5904 5904 5904 5905 5905 5905 5905 5906 5907 5907
5893 5877 5885 5883 5889 5892 5892 5893 5889 5885 5890 5892 5892 5891 5893 5894 5896 5896 5897 5898 5898 5899 5900 5900 5901 5902 5902 5902 5903 5903 5904 5906 5906 5907 5907 5906 5905 5906 5906 5906 5906 5907 5907 5906 5907 5907 5907 5907 5908
5882 5882 5885 5892 5897 5897 5894 5893 5888 5888 5890 5893 5892 5894 5894 5895 5897 5898 5899 5898 5900 5901 5902 5902 5902 5903 5904 5905 5905 5905 5907 5907 5908 5908 5908 5908 5908 5908 5907 5908 5908 5909 5908 5908 5908 5908 5908 5909 5909
5860 5880 5880 5898 5899 5898 5894 5894 5891 5891 5894 5893 5893 5895 5896 5897 5899 5899 5900 5901 5902 5903 5903 5904 5904 5905 5906 5907 5907 5908 5908 5909 5909 5909 5910 5909 5909 5909 5909 5910 5910 5910 5910 5910 5910 5909 5909 5909 5910
5889 5885 5896 5900 5899 5896 5896 5896 5896 5895 5893 5894 5896 5896 5897 5898 5900 5901 5902 5903 5904 5904 5904 5905 5906 5906 5907 5908 5909 5909 5910 5911 5911 5912 5912 5911 5911 5911 5912 5911 5911 5911 5910 5909 5909 5910 5909 5910 5911
5895 5895 5897 5904 5902 5898 5899 5896 5898 5897 5894 5895 5898 5897 5898 5898 5900 5902 5903 5903 5903 5905 5905 5906 5907 5908 5909 5910 5911 5912 5913 5914 5914 5914 5914 5913 5913 5914 5914 5913 5911 5910 5911 5910 5909 5909 5911 5911 5911
5897 5896 5898 5899 5904 5900 5900 5899 5897 5896 5897 5895 5894 5897 5900 5900 5900 5901 5902 5903 5904 5905 5906 5907 5908 5910 5911 5912 5913 5914 5915 5916 5916 5916 5916 5916 5917 5917 5916 5911 5911 5913 5913 5913 5912 5909 5909 5911 5912
5902 5899 5896 5892 5902 5901 5900 5899 5899 5899 5898 5897 5896 5897 5898 5900 5901 5902 5903 5903 5905 5905 5906 5908 5910 5912 5913 5914 5915 5916 5918 5918 5918 5918 5918 5918 5915 5916 5912 5913 5918 5917 5916 5921 5918 5913 5910 5912 5913
5897 5898 5899 5898 5903 5905 5900 5898 5899 5899 5897 5898 5897 5897 5897 5898 5901 5902 5903 5903 5905 5906 5908 5910 5912 5913 5915 5916 5917 5918 5919 5920 5920 5920 5920 5921 5920 5919 5918 5924 5920 5913 5905 5917 5923 5916 5913 5915 5915
5905 5903 5904 5900 5903 5904 5903 5900 5899 5898 5897 5897 5896 5897 5897 5898 5899 5902 5903 5904 5906 5908 5910 5912 5914 5915 5916 5917 5918 5919 5920 5921 5921 5922 5922 5922 5921 5918 5921 5918 5917 5918 5914 5916 5922 5918 5917 5917 5916
5902 5903 5907 5911 5908 5907 5903 5901 5900 5899 5897 5897 5897 5897 5897 5898 5899 5902 5904 5905 5907 5909 5911 5914 5915 5917 5917 5919 5920 5920 5920 5921 5922 5922 5923 5923 5923 5921 5920 5922 5923 5925 5924 5924 5920 5919 5919 5919 5917
5902 5906 5907 5909 5910 5908 5907 5903 5901 5900 5898 5899 5898 5898 5897 5898 5900 5902 5904 5906 5908 5910 5912 5914 5916 5918 5918 5920 5920 5921 5921 5922 5923 5924 5924 5925 5925 5925 5924 5926 5926 5926 5925 5922 5920 5921 5920 5919 5917
5895 5902 5906 5905 5906 5910 5909 5902 5904 5900 5900 5900 5899 5899 5898 5898 5900 5902 5904 5906 5909 5910 5913 5916 5917 5918 5920 5921 5921 5922 5923 5923 5923 5924 5925 5927 5926 5927 5926 5926 5925 5924 5924 5922 5921 5921 5919 5918 5917
5890 5896 5900 5904 5905 5906 5907 5906 5905 5900 5901 5900 5901 5900 5899 5900 5901 5903 5905 5908 5910 5912 5914 5915 5916 5918 5920 5921 5921 5923 5924 5924 5924 5925 5926 5927 5926 5927 5927 5926 5926 5925 5924 5923 5922 5920 5918 5917 5917
5886 5892 5898 5903 5903 5904 5906 5901 5900 5901 5901 5900 5901 5901 5901 5901 5902 5904 5906 5908 5910 5912 5914 5915 5916 5919 5920 5921 5922 5923 5924 5925 5926 5926 5926 5927 5927 5927 5927 5926 5926 5925 5924 5923 5922 5920 5918 5917 5915
5885 5891 5898 5902 5904 5903 5897 5902 5904 5901 5900 5899 5901 5902 5902 5902 5903 5905 5907 5908 5910 5912 5914 5915 5917 5919 5920 5921 5922 5923 5924 5925 5926 5925 5926 5927 5926 5926 5927 5926 5924 5924 5923 5922 5920 5918 5916 5915 5913
5884 5892 5897 5901 5899 5899 5896 5895 5894 5899 5895 5899 5901 5902 5901 5903 5904 5906 5907 5908 5910 5912 5913 5915 5916 5918 5919 5920 5921 5922 5923 5924 5925 5925 5925 5926 5927 5926 5926 5925 5924 5923 5921 5920 5918 5917 5915 5913 5911
5880 5884 5893 5901 5896 5896 5900 5896 5894 5892 5896 5899 5901 5901 5902 5903 5904 5905 5907 5908 5910 5911 5913 5914 5915 5916 5917 5919 5920 5921 5922 5923 5924 5925 5925 5925 5925 5925 5924 5923 5922 5920 5919 5917 5916 5914 5912 5912 5909
5877 5879 5887 5895 5894 5895 5900 5900 5894 5890 5897 5901 5900 5901 5901 5901 5902 5904 5905 5907 5908 5910 5911 5912 5914 5915 5916 5917 5918 5919 5921 5922 5923 5923 5924 5924 5923 5922 5922 5920 5919 5917 5915 5914 5913 5911 5910 5909 5907
5871 5877 5882 5889 5890 5891 5893 5893 5895 5894 5896 5899 5900 5900 5901 5901 5902 5903 5904 5905 5907 5908 5910 5911 5912 5913 5914 5915 5916 5917 5919 5920 5921 5921 5922 5921 5921 5920 5919 5917 5916 5914 5913 5911 5910 5908 5906 5905 5905
5866 5874 5878 5882 5887 5883 5887 5889 5892 5894 5892 5890 5895 5898 5899 5900 5900 5902 5902 5903 5905 5906 5908 5909 5910 5911 5912 5913 5914 5915 5916 5917 5918 5918 5918 5918 5918 5917 5917 5916 5914 5912 5910 5909 5907 5905 5903 5901 5900
5863 5868 5873 5876 5879 5878 5881 5883 5887 5885 5892 5891 5888 5893 5896 5898 5899 5900 5901 5901 5902 5903 5905 5906 5907 5907 5908 5909 5911 5913 5913 5914 5914 5915 5915 5916 5916 5915 5913 5912 5911 5909 5906 5904 5902 5900 5898 5897 5895
5852 5859 5863 5867 5868 5870 5880 5877 5881 5881 5887 5888 5886 5877 5890 5895 5894 5896 5897 5899 5900 5900 5902 5903 5903 5904 5904 5905 5906 5908 5910 5910 5910 5911 5912 5913 5912 5910 5910 5907 5905 5904 5902 5899 5896 5893 5891 5888 5888
5842 5849 5852 5856 5862 5868 5874 5873 5879 5876 5880 5883 5877 5874 5885 5889 5890 5892 5895 5895 5897 5897 5898 5899 5900 5899 5900 5901 5902 5903 5905 5905 5906 5907 5909 5909 5909 5908 5905 5904 5903 5901 5897 5894 5890 5887 5884 5884 5882
5837 5836 5848 5854 5860 5863 5867 5872 5878 5881 5874 5876 5873 5886 5889 5884 5883 5885 5891 5892 5893 5894 5895 5895 5896 5896 5896 5896 5898 5899 5900 5901 5902 5904 5906 5906 5906 5905 5902 5901 5899 5896 5894 5891 5886 5883 5878 5876 5877
5826 5837 5837 5839 5846 5849 5858 5863 5868 5874 5873 5868 5875 5878 5884 5888 5883 5882 5886 5888 5890 5891 5892 5892 5892 5892 5891 5892 5893 5895 5896 5898 5899 5901 5904 5904 5903 5902 5899 5896 5895 5893 5890 5884 5882 5878 5875 5871 5871
5818 5820 5824 5835 5837 5841 5848 5851 5865 5869 5872 5868 5869 5873 5876 5880 5882 5879 5881 5884 5886 5886 5888 5889 5889 5889 5888 5888 5889 5891 5892 5894 5897 5900 5900 5901 5900 5897 5897 5894 5892 5889 5886 5882 5879 5875 5873 5871 5869
5808 5813 5817 5817 5825 5831 5838 5843 5859 5866 5864 5864 5865 5869 5869 5875 5876 5876 5876 5879 5881 5883 5884 5885 5886 5885 5885 5885 5886 5888 5890 5893 5895 5896 5897 5897 5896 5894 5891 5889 5888 5887 5884 5881 5877 5873 5868 5866 5863